Regional Weather Roundup
Issued by NWS State College, PA

Home | Current Version | Previous Version | Text Only | Print | Product List | Glossary On
Versions: 1 2 3 4 5 6 7 8 9 10 11 12 13 14 15 16 17 18 19 20 21 22 23 24 25 26 27 28 29 30 31 32 33 34 35 36 37 38 39 40 41 42 43 44 45 46 47 48 49 50
000
ASUS41 KCTP 192010
RWRCTP

REGIONAL WEATHER ROUNDUP
NATIONAL WEATHER SERVICE STATE COLLEGE PA
300 PM EST SUN NOV 19 2017

Note: "fair" indicates few or no clouds below 12,000 feet with no
significant weather and/or obstructions to visibility.

* = STATION THAT DOES NOT REPORT PRECIPITATION /E.G. RAIN...SNOW...ETC/
    THUNDER OR FOG.

PAZ002>004-007>009-013>016-020>023-029>032-192100-
WESTERN PENNSYLVANIA

CITY           SKY/WX    TMP DP  RH WIND       PRES   REMARKS
ERIE           CLOUDY    38  29  70 W14G26    29.76R
MEADVILLE      LGT SNOW  33  31  92 W13       29.77R FOG
FRANKLIN*      LGT SNOW  34  30  86 VRB5      29.76S FOG
NEW CASTLE     LGT RAIN  37  28  70 W9G18     29.82R
BEAVER COUNTY  CLOUDY   N/A N/A N/A W10G18    29.80S
BUTLER*        CLOUDY    37  27  67 W9G16     29.80S
PITTSBURGH INT FLURRIES  39  28  64 W12       29.81R
PITTSBURGH     CLOUDY    38  26  62 VRB7G16   29.81R
INDIANA*       CLOUDY    37  28  70 NW10G28   29.81R
LATROBE        PTSUNNY   37  28  70 W17       29.81S
WASHINGTON CO* MIX PCPN  36  31  82 W15       29.87R
$$

PAZ004>006-010>012-017>019-024>028-033>037-041-042-045-046-049>053-192100-
CENTRAL PENNSYLVANIA

CITY           SKY/WX    TMP DP  RH WIND       PRES   REMARKS
BRADFORD       LGT SNOW  32  29  88 W14G22    29.66R FOG
DUBOIS         CLOUDY    34  27  75 W20G29    29.70R
CLEARFIELD     PTSUNNY   37  29  72 W13G26    29.70F
JOHNSTOWN      CLOUDY    33  25  72 W22G37    29.72R
ALTOONA        CLOUDY    38  29  70 W13G21    29.74R
STATE COLLEGE  CLOUDY    39  30  70 W14G23    29.70S
WILLIAMSPORT   CLOUDY    44  33  65 W18G25    29.66R
SELINSGROVE    CLOUDY    45  29  53 W15G23    29.69R
FT INDIANTOWN  CLOUDY    45  25  45 W13G28    29.68R
CAPITAL CITY   CLOUDY    46  26  45 W12G21    29.71R
HARRISBURG     PTSUNNY   46  29  51 W17       29.70R
YORK           CLOUDY    44  28  53 W17G25    29.71S
$$

PAZ038>040-043-044-047-048-054-055-060>062-067>071-192100-
EASTERN PENNSYLVANIA

CITY           SKY/WX    TMP DP  RH WIND       PRES   REMARKS
SCRANTON       CLOUDY    43  26  51 NW14      29.61R
MOUNT POCONO   NOT AVBL
ALLENTOWN      MOSUNNY   48  26  42 NW20G35   29.61R
QUAKERTOWN*    MOCLDY    46  28  49 W8G23     29.62R
READING        PTSUNNY   47  31  53 W23G30    29.65R
LANCASTER      CLOUDY    46  28  49 NW28G37   29.68R
COATESVILLE    MOCLDY    46  28  49 NW21G32   29.66R
POTTSTOWN      PTSUNNY   48  30  49 W17G26    29.64R
BLUE BELL      MOSUNNY   46  32  57 W16G23    29.64R
DOYLESTOWN     PTSUNNY   48  28  46 W20G29    29.59R
WILLOW GROVE   NOT AVBL
NORTH PHILA    PTSUNNY   53  30  41 W23G33    29.62R
PHILADELPHIA   PTSUNNY   51  28  41 W22G35    29.64R
$$




USA.gov is the U.S. government's official web portal to all federal, state and local government web resources and services.